Change the Weather History Date:

Thursday, November 15, 2012

  Actual Average Record
Temperature  
Mean Temperature 40 °F -  
Max Temperature 55 °F 56 °F 73 °F (2005)
Min Temperature 24 °F 41 °F 20 °F (2014)
Degree Days  
Heating Degree Days 26    
Moisture  
Dew Point 29 °F    
Average Humidity 87    
Maximum Humidity 100    
Minimum Humidity 40    
Precipitation  
Precipitation 0.00 in - - ()
Sea Level Pressure  
Sea Level Pressure 30.34 in    
Wind  
Wind Speed 0 mph (North)    
Max Wind Speed 7 mph    
Max Gust Speed -    
Visibility 6 miles    
Events Fog    
Averages and records for this station are not official NWS values.
T = Trace of Precipitation, MM = Missing Value Source: NWS Daily Summary

Daily Weather History Graph

Daily Weather History Graph

Search for Another Location

Airport or City:

Trip Planner

Search our weather history database for the weather conditions in past years. The results will help you decide how hot, cold, wet, or windy it might be!

Date:

Astronomy

Nov. 15, 2012 Rise Set
Actual Time 6:23 AM CST 4:38 PM CST
Civil Twilight 5:55 AM CST 5:05 PM CST
Nautical Twilight 5:24 AM CST 5:36 PM CST
Astronomical Twilight 4:54 AM CST 6:06 PM CST
Moon 8:16 AM CST (11/15) 6:31 PM CST (11/15)
Length of Visible Light 11h 09m
Length of Day
10h 15m
Waxing Crescent, 5% of the Moon is Illuminated
Nov 15
Waxing Crescent
Nov 20
First Quarter
Nov 28
Full
Dec 6
Last Quarter
Dec 13
New

Hourly Weather History & Observations

Time (CST) Temp. Windchill Dew Point Humidity Pressure Visibility Wind Dir Wind Speed Gust Speed Precip Events Conditions
12:56 AM 30.0 °F - 28.0 °F 92% 30.32 in 10.0 mi Calm Calm - N/A   Clear
1:56 AM 28.0 °F - 26.1 °F 92% 30.30 in 10.0 mi Calm Calm - N/A   Clear
2:56 AM 27.1 °F - 26.1 °F 96% 30.31 in 10.0 mi Calm Calm - N/A   Clear
3:56 AM 27.1 °F - 27.1 °F 100% 30.32 in 10.0 mi Calm Calm - N/A   Clear
4:12 AM 26.6 °F - 26.6 °F 100% 30.33 in 1.5 mi Calm Calm - N/A   Clear
4:14 AM 26.6 °F - 26.6 °F 100% 30.33 in 1.0 mi Calm Calm - N/A   Clear
4:19 AM 26.6 °F - 24.8 °F 93% 30.33 in 0.5 mi Calm Calm - N/A Fog Light Freezing Fog
4:37 AM 26.6 °F - 26.6 °F 100% 30.33 in 1.0 mi Calm Calm - N/A   Clear
4:39 AM 26.6 °F - 26.6 °F 100% 30.33 in 1.5 mi Calm Calm - N/A   Clear
4:42 AM 26.6 °F - 26.6 °F 100% 30.33 in 3.0 mi Calm Calm - N/A   Clear
4:56 AM 26.1 °F - 26.1 °F 100% 30.34 in 2.5 mi Calm Calm - N/A   Clear
5:03 AM 26.6 °F - 26.6 °F 100% 30.34 in 6.0 mi Calm Calm - N/A   Clear
5:26 AM 26.6 °F - 26.6 °F 100% 30.35 in 2.5 mi Calm Calm - N/A   Clear
5:34 AM 26.6 °F - 26.6 °F 100% 30.35 in 4.0 mi Calm Calm - N/A   Clear
5:43 AM 24.8 °F - 24.8 °F 100% 30.35 in 2.0 mi Calm Calm - N/A   Clear
5:56 AM 25.2 °F - 25.2 °F 100% 30.35 in 4.0 mi Calm Calm - N/A   Clear
5:58 AM 24.8 °F - 24.8 °F 100% 30.35 in 2.0 mi Calm Calm - N/A   Partly Cloudy
6:00 AM 24.8 °F - 24.8 °F 100% 30.35 in 1.2 mi Calm Calm - N/A   Mostly Cloudy
6:03 AM 24.8 °F - 24.8 °F 100% 30.35 in 0.5 mi Calm Calm - N/A Fog Light Freezing Fog
6:12 AM 26.6 °F - 24.8 °F 93% 30.36 in 0.2 mi Calm Calm - N/A Fog Light Freezing Fog
6:32 AM 26.6 °F - 26.6 °F 100% 30.36 in 0.2 mi Calm Calm - N/A Fog Light Freezing Fog
6:56 AM 26.1 °F - 26.1 °F 100% 30.37 in 0.2 mi Calm Calm - N/A Fog Light Freezing Fog
7:23 AM 26.6 °F - 26.6 °F 100% 30.37 in 0.2 mi Calm Calm - N/A Fog Light Freezing Fog
7:29 AM 26.6 °F - 26.6 °F 100% 30.37 in 0.5 mi Calm Calm - N/A Fog Light Freezing Fog
7:42 AM 28.4 °F - 28.4 °F 100% 30.37 in 1.0 mi Calm Calm - N/A   Clear
7:47 AM 28.4 °F - 28.4 °F 100% 30.37 in 3.0 mi Calm Calm - N/A   Clear
7:56 AM 30.0 °F - 30.0 °F 100% 30.38 in 5.0 mi Calm Calm - N/A   Clear
8:56 AM 36.9 °F - 34.0 °F 89% 30.38 in 10.0 mi Calm Calm - N/A   Clear
9:56 AM 43.9 °F - 36.0 °F 74% 30.37 in 10.0 mi Calm Calm - N/A   Clear
10:56 AM 48.9 °F - 34.0 °F 56% 30.35 in 10.0 mi NNE 6.9 mph - N/A   Clear
11:56 AM 52.9 °F - 34.9 °F 50% 30.32 in 10.0 mi Variable 5.8 mph - N/A   Clear
12:56 PM 54.0 °F - 32.9 °F 45% 30.31 in 10.0 mi Calm Calm - N/A   Clear
1:56 PM 54.9 °F - 32.9 °F 43% 30.30 in 10.0 mi North 4.6 mph - N/A   Clear
2:56 PM 55.9 °F - 32.0 °F 40% 30.28 in 10.0 mi Calm Calm - N/A   Clear
3:56 PM 55.9 °F - 32.9 °F 42% 30.28 in 10.0 mi North 3.5 mph - N/A   Clear
4:56 PM 45.0 °F - 34.0 °F 65% 30.30 in 10.0 mi Calm Calm - N/A   Clear
5:56 PM 41.9 °F - 32.9 °F 70% 30.31 in 10.0 mi Calm Calm - N/A   Clear
6:56 PM 39.9 °F - 32.9 °F 76% 30.32 in 10.0 mi Calm Calm - N/A   Clear
7:56 PM 39.9 °F - 32.9 °F 76% 30.33 in 10.0 mi Calm Calm - N/A   Clear
8:56 PM 36.9 °F - 32.0 °F 83% 30.34 in 10.0 mi Calm Calm - N/A   Clear
9:56 PM 36.0 °F - 31.1 °F 82% 30.34 in 10.0 mi Calm Calm - N/A   Clear
10:56 PM 36.0 °F 31.1 °F 31.1 °F 82% 30.35 in 10.0 mi North 5.8 mph - N/A   Clear
11:56 PM 36.0 °F 30.3 °F 31.1 °F 82% 30.35 in 10.0 mi North 6.9 mph - 0.00 in   Clear